Location: Laguna de la Cañada del Gallo
(40.3974°N, 5.2096°W)
Time: 12:14:23
(UTC+00:00)

SJ-6B - Pass Details

Date: 18 April 2024
Orbit: 471 x 518 km, 97.4° (Epoch: 19 May)

Event Time Altitude Azimuth Distance (km) Brightness Sun altitude
Rises 20:05:59 0° 183° (S) 2,673 6.1 -12.0°
Reaches altitude 10° 20:08:10 10° 191° (S) 1,794 5.3 -12.3°
Maximum altitude 20:11:51 41° 262° (W) 803 4.1 -12.9°
Drops below altitude 10° 20:15:35 10° 333° (NNW) 1,820 6.3 -13.6°
Sets 20:17:49 0° 341° (NNW) 2,717 7.1 -14.0°
